SCP
0 0 0 0 0 0 0 0 0 0 0 0 0 0 0 0 0 0 0 0 0 0
0 0 0 0 0 0 0 0 0 0 0 0 0 0 0 0 0 0 0 0 0 0
0 0 0 0 0 0 0 0 0 0 0 0 0 0 0 0 0 0 0 0 0 0
0 0 0 0 0 0 0 0 0 0 0 0 0 0 0 0 0 0 0 0 0 0
0 0 0 0 0 0 0 0 0 0 0 0 0 0 0 0 0 0 0 0 0 0
0 0 0 0 0 0 0 0 0 0 0 0 0 0 0 0 0 0 0 0 0 0
0 0 0 0 0 0 0 0 0 0 0 0 0 0 0 0 0 0 0 0 0 0
0 0 0 0 0 0 0 0 0 0 0 0 0 0 0 0 0 0 0 0 0 0
0 0 0 0 0 0 0 0 0 0 0 0 0 0 0 0 0 0 0 0 0 0
0 0 0 0 0 0 0 0 0 0 0 0 0 0 0 0 0 0 0 0 0 0
0 0 0 0 0 0 0 0 0 0 0 0 0 0 0 0 0 0 0 0 0 0
0 0 0 0 0 0 0 0 0 0 0 0 0 0 0 0 0 0 0 0 0 0
0 0 0 0 0 0 0 0 0 0 0 0 0 0 0 0 0 0 0 0 0 0
0 0 0 0 0 0 0 0 0 0 0 0 0 0 0 0 0 0 0 0 0 0
Wind_Speed_500mb
53 53 55 57 58 58 58 58 58 59 64 64 64 70 73 75 74 79 85 89 91 93
54 60 63 66 66 66 65 65 66 65 69 66 67 67 65 66 67 69 71 70 77 90
30 38 42 47 50 54 59 66 64 65 68 65 64 68 68 63 65 65 63 66 71 83
10 12 14 17 22 27 31 38 45 56 62 68 72 73 70 68 68 72 75 75 69 69
2 4 5 8 11 15 18 21 24 28 32 34 37 43 54 65 70 71 71 72 72 73
6 8 11 12 16 18 22 24 26 30 32 34 35 36 42 48 53 57 61 63 65 66
13 15 18 21 24 28 31 32 33 35 38 41 43 42 46 48 51 55 58 59 59 57
11 15 18 21 23 26 29 32 35 36 37 40 43 46 50 52 54 58 61 61 61 61
15 18 21 24 26 29 31 33 36 38 41 43 45 48 49 52 55 55 58 61 61 62
22 24 27 29 32 35 37 39 42 44 46 47 48 50 53 55 58 60 60 61 61 63
28 31 34 36 39 42 44 45 47 48 50 52 53 56 59 62 65 67 65 63 62 66
32 34 37 38 40 41 44 44 46 48 51 54 55 59 62 65 67 69 68 65 62 61
41 44 46 47 48 48 50 50 49 48 48 49 52 54 60 64 68 73 73 72 72 65
48 49 48 46 46 48 51 52 52 53 50 50 53 54 58 61 64 67 71 72 72 71
Wind_Direction_500mb
245 247 253 257 263 266 268 270 267 268 270 278 279 280 279 278 278 278 277 275 271 267
252 253 254 257 260 263 263 260 267 272 275 272 275 279 282 282 281 280 281 281 283 275
260 256 257 258 260 262 263 263 263 265 264 271 273 275 276 276 280 281 282 283 282 277
235 252 259 268 273 276 274 273 271 267 267 267 266 267 271 273 273 278 274 281 282 277
205 269 287 296 294 294 296 293 288 285 282 283 281 277 270 270 274 278 275 274 276 271
283 305 312 315 312 308 305 304 302 301 300 295 289 285 281 277 277 280 283 284 282 280
290 295 299 302 301 301 300 297 296 297 297 297 298 297 293 291 288 286 286 286 287 289
312 313 314 312 310 311 313 315 315 314 312 312 312 309 305 302 299 297 294 293 291 288
326 325 323 323 321 321 321 322 322 321 319 317 315 309 308 308 306 304 302 301 298 293
320 319 317 317 318 315 315 317 317 317 315 313 310 307 307 306 304 302 300 299 296 291
315 315 315 314 314 313 313 312 311 308 305 303 304 305 304 303 302 300 300 298 296 293
314 312 310 311 310 309 307 307 306 305 304 302 302 300 300 299 298 296 296 296 296 293
320 319 317 316 315 313 309 308 307 304 302 300 298 299 299 299 298 297 297 299 300 298
320 317 315 314 313 312 312 312 313 310 309 307 305 302 300 299 299 299 298 298 297 296
Wind_Speed_850mb
53 53 55 57 58 58 58 58 58 59 64 64 64 70 73 75 74 79 85 89 91 93
54 60 63 66 66 66 65 65 66 65 69 66 67 67 65 66 67 69 71 70 77 90
30 38 42 47 50 54 59 66 64 65 68 65 64 68 68 63 65 65 63 66 71 83
10 12 14 17 22 27 31 38 45 56 62 68 72 73 70 68 68 72 75 75 69 69
2 4 5 8 11 15 18 21 24 28 32 34 37 43 54 65 70 71 71 72 72 73
6 8 11 12 16 18 22 24 26 30 32 34 35 36 42 48 53 57 61 63 65 66
13 15 18 21 24 28 31 32 33 35 38 41 43 42 46 48 51 55 58 59 59 57
11 15 18 21 23 26 29 32 35 36 37 40 43 46 50 52 54 58 61 61 61 61
15 18 21 24 26 29 31 33 36 38 41 43 45 48 49 52 55 55 58 61 61 62
22 24 27 29 32 35 37 39 42 44 46 47 48 50 53 55 58 60 60 61 61 63
28 31 34 36 39 42 44 45 47 48 50 52 53 56 59 62 65 67 65 63 62 66
32 34 37 38 40 41 44 44 46 48 51 54 55 59 62 65 67 69 68 65 62 61
41 44 46 47 48 48 50 50 49 48 48 49 52 54 60 64 68 73 73 72 72 65
48 49 48 46 46 48 51 52 52 53 50 50 53 54 58 61 64 67 71 72 72 71
Wind_Direction_850mb
245 247 253 257 263 266 268 270 267 268 270 278 279 280 279 278 278 278 277 275 271 267
252 253 254 257 260 263 263 260 267 272 275 272 275 279 282 282 281 280 281 281 283 275
260 256 257 258 260 262 263 263 263 265 264 271 273 275 276 276 280 281 282 283 282 277
235 252 259 268 273 276 274 273 271 267 267 267 266 267 271 273 273 278 274 281 282 277
205 269 287 296 294 294 296 293 288 285 282 283 281 277 270 270 274 278 275 274 276 271
283 305 312 315 312 308 305 304 302 301 300 295 289 285 281 277 277 280 283 284 282 280
290 295 299 302 301 301 300 297 296 297 297 297 298 297 293 291 288 286 286 286 287 289
312 313 314 312 310 311 313 315 315 314 312 312 312 309 305 302 299 297 294 293 291 288
326 325 323 323 321 321 321 322 322 321 319 317 315 309 308 308 306 304 302 301 298 293
320 319 317 317 318 315 315 317 317 317 315 313 310 307 307 306 304 302 300 299 296 291
315 315 315 314 314 313 313 312 311 308 305 303 304 305 304 303 302 300 300 298 296 293
314 312 310 311 310 309 307 307 306 305 304 302 302 300 300 299 298 296 296 296 296 293
320 319 317 316 315 313 309 308 307 304 302 300 298 299 299 299 298 297 297 299 300 298
320 317 315 314 313 312 312 312 313 310 309 307 305 302 300 299 299 299 298 298 297 296